Location: Six Mile Lake
(44.9000°N, 79.7170°W)
Time: 08:12:50
(UTC-04:00)

ZACube-1 - Pass Details

Date: 10 July 2022
Orbit: 582 x 661 km, 97.6° (Epoch: 14 August)

Event Time Altitude Azimuth Distance (km) Brightness Sun altitude
Rises 04:07:58 0° 28° (NNE) 2,989 ? -13.2°
Reaches altitude 10° 04:10:48 10° 47° (NE) 2,080 ? -12.9°
Maximum altitude 04:13:59 19° 91° (E) 1,585 ? -12.5°
Drops below altitude 10° 04:17:10 10° 136° (SE) 2,076 ? -12.2°
Sets 04:19:59 0° 154° (SSE) 2,981 ? -11.9°
